Location: Sternwarte_Laufen
(47.9344°N, 12.9346°E)
Time: 05:03:26
(UTC+02:00)

ISS - Pass Details

Date: 23 May 2017
Orbit: 402 x 409 km, 51.6° (Epoch: 23 May)

Event Time Altitude Azimuth Distance (km) Brightness Sun altitude
Rises 04:25:21 0° 292° (WNW) 2,329 -0.2 -8.1°
Reaches altitude 10° 04:27:28 10° 288° (WNW) 1,465 -1.3 -7.9°
Maximum altitude 04:30:40 53° 210° (SSW) 506 -3.7 -7.5°
Drops below altitude 10° 04:33:51 10° 133° (SE) 1,454 -0.9 -7.1°
Sets 04:35:57 0° 128° (SE) 2,309 0.1 -6.8°
